Location: Gorze? G�rny
(49.8500°N, 19.5000°E)
Time: 03:10:41
(UTC+00:00)

Cosmos 1656 Rocket - Pass Details

Date: 13 May 2021
Orbit: 794 x 848 km, 71.1° (Epoch: 23 June)

Event Time Altitude Azimuth Distance (km) Brightness Sun altitude
Exits shadow 21:52:59 42° 150° (SSE) 1,140 3.9 -20.8°
Maximum altitude 21:54:13 50° 111° (ESE) 1,022 3.9 -20.8°
Drops below altitude 10° 21:59:34 10° 37° (NE) 2,424 6.6 -21.0°
Sets 22:02:04 0° 32° (NNE) 3,370 7.6 -21.1°
